This is the latest recevied weather packets stored in our database for station/object VA6GSB-13. If no packets are shown the sender has not sent any weather packets the latest 10 day(s).
| Time | Temp. | Humidity | Pressure | Rain* | Wind** | Luminosity | Snow |
|---|---|---|---|---|---|---|---|
| 1787686763 | 25° C | 37% | 1022.1 hPa | 0 mm | - | 754 W/m² | - |
| 1787686464 | 25° C | 38% | 1022.1 hPa | 0 mm | - | 754 W/m² | - |
| 1787686164 | 24.44° C | 38% | 1022.1 hPa | 0 mm | - | 754 W/m² | - |
| 1787685940 | 24.44° C | 37% | 1022 hPa | 0 mm | - | 758 W/m² | - |
| 1787685641 | 24.44° C | 37% | 1022 hPa | 0 mm | - | 755 W/m² | - |
| 1787685341 | 25° C | 38% | 1022 hPa | 0 mm | - | 754 W/m² | - |
| 1787685264 | 25° C | 39% | 1022.2 hPa | 0 mm | - | 754 W/m² | - |
| 1787684964 | 25° C | 38% | 1022.2 hPa | 0 mm | - | 754 W/m² | - |
| 1787684740 | 24.44° C | 39% | 1022 hPa | 0 mm | - | 752 W/m² | - |
| 1787684664 | 24.44° C | 39% | 1022.3 hPa | 0 mm | - | 754 W/m² | - |
| 1787684363 | 24.44° C | 38% | 1022.3 hPa | 0 mm | - | 753 W/m² | - |
| 1787684066 | 25° C | 39% | 1022.4 hPa | 0 mm | - | 750 W/m² | - |
| 1787683764 | 24.44° C | 39% | 1022.4 hPa | 0 mm | - | 746 W/m² | - |
| 1787683464 | 24.44° C | 42% | 1022.4 hPa | 0 mm | - | 742 W/m² | - |
| 1787683164 | 23.89° C | 43% | 1022.4 hPa | 0 mm | - | 738 W/m² | - |
| 1787682864 | 23.89° C | 40% | 1022.5 hPa | 0 mm | - | 735 W/m² | - |
| 1787682640 | 23.89° C | 41% | 1023 hPa | 0 mm | - | 731 W/m² | - |
| 1787682340 | 23.89° C | 43% | 1023 hPa | 0 mm | - | 727 W/m² | - |
| 1787682039 | 23.89° C | 40% | 1023 hPa | 0 mm | - | 720 W/m² | - |
| 1787681740 | 23.89° C | 41% | 1023 hPa | 0 mm | - | 717 W/m² | - |
| 1787681439 | 23.89° C | 39% | 1023 hPa | 0 mm | - | 713 W/m² | - |
| 1787681364 | 23.89° C | 41% | 1022.6 hPa | 0 mm | - | 711 W/m² | - |
| 1787681140 | 23.33° C | 39% | 1023 hPa | 0 mm | - | 707 W/m² | - |
| 1787680840 | 23.89° C | 41% | 1023 hPa | 0 mm | - | 701 W/m² | - |
| 1787680539 | 23.33° C | 44% | 1023 hPa | 0 mm | - | 693 W/m² | - |
* Rain latest hour (hover to see other rain measurements)
** Current wind speed in m/s (hover to see current wind gust speed)